Location: Goheenville
(40.9070°N, 79.3720°W)
Time: 03:00:49
(UTC-04:00)

Meteor 2-10 Rocket - Visible Passes

Search period start: 31 October 2014 00:00
Search period end: 09 November 2014 23:00
Orbit: 735 x 885 km, 81.2° (Epoch: 29 October)

Date Brightness Start Highest point End Pass type
(mag) Time Alt. Az. Time Alt. Az. Time Alt. Az.
04 Nov 6.7 06:10:01 10° NE 06:11:33 11° ENE 06:13:03 10° ENE visible
08 Nov 6.2 06:13:09 10° NNE 06:17:40 23° ENE 06:22:07 10° ESE visible
09 Nov 6.4 05:49:40 10° NNE 05:53:19 17° ENE 05:56:55 10° ESE visible
